����������;��������(kWh)
2015-08-17 00:00;67,25
2015-08-17 00:15;66,9
2015-08-17 00:30;65,4
2015-08-17 00:45;64,8
2015-08-17 01:00;65,3
2015-08-17 01:15;62,6
2015-08-17 01:30;62,8
2015-08-17 01:45;64,45
2015-08-17 02:00;64,15
2015-08-17 02:15;70,25
2015-08-17 02:30;69,1
2015-08-17 02:45;67,75
2015-08-17 03:00;63,1
2015-08-17 03:15;62,4
2015-08-17 03:30;61,7
2015-08-17 03:45;62,8
2015-08-17 04:00;61,05
2015-08-17 04:15;62,15
2015-08-17 04:30;64,25
2015-08-17 04:45;61,9
2015-08-17 05:00;63,45
2015-08-17 05:15;61,8
2015-08-17 05:30;63,45
2015-08-17 05:45;59,75
2015-08-17 06:00;59,4
2015-08-17 06:15;59,45
2015-08-17 06:30;58,65
2015-08-17 06:45;54,9
2015-08-17 07:00;54,95
2015-08-17 07:15;55,15
2015-08-17 07:30;55,45
2015-08-17 07:45;55,65
2015-08-17 08:00;55,05
2015-08-17 08:15;55,5
2015-08-17 08:30;57,4
2015-08-17 08:45;56,7
2015-08-17 09:00;58,45
2015-08-17 09:15;57,9
2015-08-17 09:30;60,3
2015-08-17 09:45;59,5
2015-08-17 10:00;61,25
2015-08-17 10:15;61,7
2015-08-17 10:30;65
2015-08-17 10:45;64
2015-08-17 11:00;64,2
2015-08-17 11:15;66,25
2015-08-17 11:30;65,75
2015-08-17 11:45;66,3
2015-08-17 12:00;66,65
2015-08-17 12:15;68,05
2015-08-17 12:30;68,9
2015-08-17 12:45;69,05
2015-08-17 13:00;71,3
2015-08-17 13:15;69,5
2015-08-17 13:30;68,55
2015-08-17 13:45;66,35
2015-08-17 14:00;67,3
2015-08-17 14:15;65,2
2015-08-17 14:30;67
2015-08-17 14:45;66,4
2015-08-17 15:00;68,55
2015-08-17 15:15;67,8
2015-08-17 15:30;66,25
2015-08-17 15:45;67
2015-08-17 16:00;64,75
2015-08-17 16:15;66,5
2015-08-17 16:30;65,05
2015-08-17 16:45;65,35
2015-08-17 17:00;65,05
2015-08-17 17:15;66,35
2015-08-17 17:30;65,75
2015-08-17 17:45;64,75
2015-08-17 18:00;63,65
2015-08-17 18:15;63,95
2015-08-17 18:30;63,05
2015-08-17 18:45;62,85
2015-08-17 19:00;63,75
2015-08-17 19:15;64,1
2015-08-17 19:30;63,2
2015-08-17 19:45;63,45
2015-08-17 20:00;62,7
2015-08-17 20:15;62,1
2015-08-17 20:30;66,8
2015-08-17 20:45;71,55
2015-08-17 21:00;73,8
2015-08-17 21:15;67,2
2015-08-17 21:30;66,4
2015-08-17 21:45;65,4
2015-08-17 22:00;66,3
2015-08-17 22:15;65,65
2015-08-17 22:30;66,55
2015-08-17 22:45;66,05
2015-08-17 23:00;67,1
2015-08-17 23:15;63,95
2015-08-17 23:30;63,8
2015-08-17 23:45;63
2015-08-18 00:00;64,65
2015-08-18 00:15;62,55
2015-08-18 00:30;63,6
2015-08-18 00:45;62,5
2015-08-18 01:00;63,7
2015-08-18 01:15;63,9
2015-08-18 01:30;63,35
2015-08-18 01:45;63,7
2015-08-18 02:00;64,35
2015-08-18 02:15;62,7
2015-08-18 02:30;62,2
2015-08-18 02:45;63,65
2015-08-18 03:00;62,55
2015-08-18 03:15;62,8
2015-08-18 03:30;62,45
2015-08-18 03:45;61,55
2015-08-18 04:00;62,75
2015-08-18 04:15;61,3
2015-08-18 04:30;61
2015-08-18 04:45;60,8
2015-08-18 05:00;62,35
2015-08-18 05:15;60,3
2015-08-18 05:30;61,8
2015-08-18 05:45;59,25
2015-08-18 06:00;58,9
2015-08-18 06:15;60,7
2015-08-18 06:30;59,2
2015-08-18 06:45;56,5
2015-08-18 07:00;57,35
2015-08-18 07:15;56,65
2015-08-18 07:30;56,35
2015-08-18 07:45;56,35
2015-08-18 08:00;56,6
2015-08-18 08:15;56,8
2015-08-18 08:30;57,45
2015-08-18 08:45;61,2
2015-08-18 09:00;60,5
2015-08-18 09:15;59,9
2015-08-18 09:30;60,2
2015-08-18 09:45;60,3
2015-08-18 10:00;62
2015-08-18 10:15;68,15
2015-08-18 10:30;68,65
2015-08-18 10:45;71,45
2015-08-18 11:00;64,5
2015-08-18 11:15;66,65
2015-08-18 11:30;66,85
2015-08-18 11:45;66,25
2015-08-18 12:00;68,05
2015-08-18 12:15;66,35
2015-08-18 12:30;67,2
2015-08-18 12:45;65,6
2015-08-18 13:00;67,1
2015-08-18 13:15;67,35
2015-08-18 13:30;68,6
2015-08-18 13:45;66,95
2015-08-18 14:00;68,6
2015-08-18 14:15;68,65
2015-08-18 14:30;66,9
2015-08-18 14:45;67
2015-08-18 15:00;67,05
2015-08-18 15:15;67,1
2015-08-18 15:30;66,35
2015-08-18 15:45;67,6
2015-08-18 16:00;65,8
2015-08-18 16:15;67,45
2015-08-18 16:30;66,6
2015-08-18 16:45;67,05
2015-08-18 17:00;67,65
2015-08-18 17:15;66,3
2015-08-18 17:30;65,75
2015-08-18 17:45;66,3
2015-08-18 18:00;66
2015-08-18 18:15;66,35
2015-08-18 18:30;67,05
2015-08-18 18:45;66,9
2015-08-18 19:00;64,6
2015-08-18 19:15;65,5
2015-08-18 19:30;63,15
2015-08-18 19:45;63,85
2015-08-18 20:00;64,3
2015-08-18 20:15;63,65
2015-08-18 20:30;66,05
2015-08-18 20:45;65,6
2015-08-18 21:00;66,8
2015-08-18 21:15;65,7
2015-08-18 21:30;66,4
2015-08-18 21:45;66,45
2015-08-18 22:00;65,4
2015-08-18 22:15;64,25
2015-08-18 22:30;64,25
2015-08-18 22:45;64,3
2015-08-18 23:00;69,7
2015-08-18 23:15;69,65
2015-08-18 23:30;68,95
2015-08-18 23:45;65,5
2015-08-19 00:00;64,3
2015-08-19 00:15;62
2015-08-19 00:30;62,5
2015-08-19 00:45;62,7
2015-08-19 01:00;61,75
2015-08-19 01:15;61,75
2015-08-19 01:30;62,75
2015-08-19 01:45;61,85
2015-08-19 02:00;61,65
2015-08-19 02:15;62,85
2015-08-19 02:30;61,6
2015-08-19 02:45;61,55
2015-08-19 03:00;62,5
2015-08-19 03:15;60,95
2015-08-19 03:30;61,75
2015-08-19 03:45;61,95
2015-08-19 04:00;62
2015-08-19 04:15;61,5
2015-08-19 04:30;61,8
2015-08-19 04:45;62,6
2015-08-19 05:00;61,4
2015-08-19 05:15;60,55
2015-08-19 05:30;61,45
2015-08-19 05:45;61,25
2015-08-19 06:00;60,05
2015-08-19 06:15;59,2
2015-08-19 06:30;60,05
2015-08-19 06:45;57,8
2015-08-19 07:00;56,65
2015-08-19 07:15;56,2
2015-08-19 07:30;57,05
2015-08-19 07:45;55,85
2015-08-19 08:00;56,25
2015-08-19 08:15;57,7
2015-08-19 08:30;59,1
2015-08-19 08:45;59,35
2015-08-19 09:00;61,1
2015-08-19 09:15;59,9
2015-08-19 09:30;60,85
2015-08-19 09:45;63,4
2015-08-19 10:00;63,3
2015-08-19 10:15;64,65
2015-08-19 10:30;62,9
2015-08-19 10:45;67,7
2015-08-19 11:00;69,55
2015-08-19 11:15;73,1
2015-08-19 11:30;69,9
2015-08-19 11:45;66,75
2015-08-19 12:00;66,75
2015-08-19 12:15;69,05
2015-08-19 12:30;69,3
2015-08-19 12:45;67,8
2015-08-19 13:00;68,1
2015-08-19 13:15;69,7
2015-08-19 13:30;70,1
2015-08-19 13:45;70,3
2015-08-19 14:00;69,35
2015-08-19 14:15;68,7
2015-08-19 14:30;67,45
2015-08-19 14:45;66,35
2015-08-19 15:00;66,55
2015-08-19 15:15;65
2015-08-19 15:30;68,1
2015-08-19 15:45;65,05
2015-08-19 16:00;64,75
2015-08-19 16:15;63,75
2015-08-19 16:30;64,1
2015-08-19 16:45;62,8
2015-08-19 17:00;63,85
2015-08-19 17:15;63,45
2015-08-19 17:30;64,95
2015-08-19 17:45;63,8
2015-08-19 18:00;61,35
2015-08-19 18:15;62,45
2015-08-19 18:30;61,7
2015-08-19 18:45;63,2
2015-08-19 19:00;63,2
2015-08-19 19:15;63,85
2015-08-19 19:30;63,35
2015-08-19 19:45;65,7
2015-08-19 20:00;63,95
2015-08-19 20:15;65,45
2015-08-19 20:30;66,6
2015-08-19 20:45;67,6
2015-08-19 21:00;67,75
2015-08-19 21:15;65,65
2015-08-19 21:30;66,25
2015-08-19 21:45;64,25
2015-08-19 22:00;63,35
2015-08-19 22:15;65,05
2015-08-19 22:30;65,6
2015-08-19 22:45;66,05
2015-08-19 23:00;67,45
2015-08-19 23:15;64,2
2015-08-19 23:30;64,15
2015-08-19 23:45;64,95
2015-08-20 00:00;64,7
2015-08-20 00:15;64,2
2015-08-20 00:30;64,4
2015-08-20 00:45;63,1
2015-08-20 01:00;64,45
2015-08-20 01:15;62,45
2015-08-20 01:30;64,4
2015-08-20 01:45;63
2015-08-20 02:00;68,6
2015-08-20 02:15;69,65
2015-08-20 02:30;68,2
2015-08-20 02:45;62,3
2015-08-20 03:00;63,75
2015-08-20 03:15;63,15
2015-08-20 03:30;62,75
2015-08-20 03:45;63
2015-08-20 04:00;62,15
2015-08-20 04:15;63,15
2015-08-20 04:30;62,45
2015-08-20 04:45;62,4
2015-08-20 05:00;62,8
2015-08-20 05:15;62,7
2015-08-20 05:30;63,25
2015-08-20 05:45;60,5
2015-08-20 06:00;61,2
2015-08-20 06:15;60,35
2015-08-20 06:30;60,05
2015-08-20 06:45;56,75
2015-08-20 07:00;56,55
2015-08-20 07:15;55,05
2015-08-20 07:30;54,75
2015-08-20 07:45;54,2
2015-08-20 08:00;55,7
2015-08-20 08:15;55,7
2015-08-20 08:30;57,5
2015-08-20 08:45;59,6
2015-08-20 09:00;59,15
2015-08-20 09:15;62,1
2015-08-20 09:30;63,25
2015-08-20 09:45;63,95
2015-08-20 10:00;65,25
2015-08-20 10:15;67
2015-08-20 10:30;65,5
2015-08-20 10:45;68,05
2015-08-20 11:00;67,1
2015-08-20 11:15;67,4
2015-08-20 11:30;65,65
2015-08-20 11:45;68,85
2015-08-20 12:00;69,7
2015-08-20 12:15;73,25
2015-08-20 12:30;70,9
2015-08-20 12:45;73,3
2015-08-20 13:00;72,9
2015-08-20 13:15;75,5
2015-08-20 13:30;72,2
2015-08-20 13:45;70,7
2015-08-20 14:00;68,35
2015-08-20 14:15;71,15
2015-08-20 14:30;69,2
2015-08-20 14:45;69,4
2015-08-20 15:00;66,9
2015-08-20 15:15;66,3
2015-08-20 15:30;65,6
2015-08-20 15:45;68,15
2015-08-20 16:00;67,5
2015-08-20 16:15;65,8
2015-08-20 16:30;67,7
2015-08-20 16:45;68,1
2015-08-20 17:00;66,35
2015-08-20 17:15;68
2015-08-20 17:30;69,4
2015-08-20 17:45;76,3
2015-08-20 18:00;75,15
2015-08-20 18:15;74,7
2015-08-20 18:30;74,85
2015-08-20 18:45;73,65
2015-08-20 19:00;74,55
2015-08-20 19:15;72,9
2015-08-20 19:30;74,05
2015-08-20 19:45;73,05
2015-08-20 20:00;73,9
2015-08-20 20:15;74
2015-08-20 20:30;73,5
2015-08-20 20:45;69,25
2015-08-20 21:00;70,9
2015-08-20 21:15;68,6
2015-08-20 21:30;69,5
2015-08-20 21:45;66,45
2015-08-20 22:00;68,1
2015-08-20 22:15;65
2015-08-20 22:30;66
2015-08-20 22:45;65
2015-08-20 23:00;66,95
2015-08-20 23:15;66
2015-08-20 23:30;65,45
2015-08-20 23:45;66,4
2015-08-21 00:00;66,85
2015-08-21 00:15;65,65
2015-08-21 00:30;65,8
2015-08-21 00:45;66,6
2015-08-21 01:00;65,2
2015-08-21 01:15;65,45
2015-08-21 01:30;62,95
2015-08-21 01:45;62
2015-08-21 02:00;63,65
2015-08-21 02:15;66,1
2015-08-21 02:30;69,05
2015-08-21 02:45;69,4
2015-08-21 03:00;63,1
2015-08-21 03:15;61,9
2015-08-21 03:30;61,75
2015-08-21 03:45;62,95
2015-08-21 04:00;62,45
2015-08-21 04:15;63,9
2015-08-21 04:30;62,15
2015-08-21 04:45;61,95
2015-08-21 05:00;62,65
2015-08-21 05:15;63,2
2015-08-21 05:30;65,1
2015-08-21 05:45;63,35
2015-08-21 06:00;64,15
2015-08-21 06:15;60,35
2015-08-21 06:30;61,15
2015-08-21 06:45;57,9
2015-08-21 07:00;57,95
2015-08-21 07:15;56,45
2015-08-21 07:30;57,05
2015-08-21 07:45;57,25
2015-08-21 08:00;58
2015-08-21 08:15;57,9
2015-08-21 08:30;61,65
2015-08-21 08:45;60,75
2015-08-21 09:00;61,5
2015-08-21 09:15;61,2
2015-08-21 09:30;61,45
2015-08-21 09:45;69,8
2015-08-21 10:00;99,3
2015-08-21 10:15;93,35
2015-08-21 10:30;81,4
2015-08-21 10:45;76,55
2015-08-21 11:00;78,25
2015-08-21 11:15;78,1
2015-08-21 11:30;78,85
2015-08-21 11:45;83,95
2015-08-21 12:00;91,75
2015-08-21 12:15;88,65
2015-08-21 12:30;87,75
2015-08-21 12:45;87,95
2015-08-21 13:00;87,7
2015-08-21 13:15;90,5
2015-08-21 13:30;88,1
2015-08-21 13:45;87,2
2015-08-21 14:00;85,9
2015-08-21 14:15;87,2
2015-08-21 14:30;85,9
2015-08-21 14:45;85,75
2015-08-21 15:00;85,35
2015-08-21 15:15;84,4
2015-08-21 15:30;88,45
2015-08-21 15:45;85,55
2015-08-21 16:00;84
2015-08-21 16:15;86,05
2015-08-21 16:30;86,25
2015-08-21 16:45;89,5
2015-08-21 17:00;93,1
2015-08-21 17:15;86,55
2015-08-21 17:30;87,2
2015-08-21 17:45;90,45
2015-08-21 18:00;88,6
2015-08-21 18:15;86,4
2015-08-21 18:30;89,4
2015-08-21 18:45;86,1
2015-08-21 19:00;83,85
2015-08-21 19:15;87,6
2015-08-21 19:30;86,45
2015-08-21 19:45;83,45
2015-08-21 20:00;82,45
2015-08-21 20:15;81,8
2015-08-21 20:30;82,95
2015-08-21 20:45;75,3
2015-08-21 21:00;75,55
2015-08-21 21:15;73,95
2015-08-21 21:30;74,05
2015-08-21 21:45;72,45
2015-08-21 22:00;73,9
2015-08-21 22:15;71,2
2015-08-21 22:30;72,3
2015-08-21 22:45;71,35
2015-08-21 23:00;71,8
2015-08-21 23:15;75,45
2015-08-21 23:30;73,35
2015-08-21 23:45;76,45
2015-08-22 00:00;81,75
2015-08-22 00:15;67,45
2015-08-22 00:30;69,35
2015-08-22 00:45;70
2015-08-22 01:00;73,65
2015-08-22 01:15;74,55
2015-08-22 01:30;68
2015-08-22 01:45;66,7
2015-08-22 02:00;66,9
2015-08-22 02:15;65,9
2015-08-22 02:30;67,55
2015-08-22 02:45;65,05
2015-08-22 03:00;66,9
2015-08-22 03:15;66,5
2015-08-22 03:30;66,1
2015-08-22 03:45;65,05
2015-08-22 04:00;66,8
2015-08-22 04:15;66,8
2015-08-22 04:30;67,3
2015-08-22 04:45;65,7
2015-08-22 05:00;66,95
2015-08-22 05:15;67,7
2015-08-22 05:30;67,1
2015-08-22 05:45;65,35
2015-08-22 06:00;64,45
2015-08-22 06:15;65,2
2015-08-22 06:30;64,8
2015-08-22 06:45;64,15
2015-08-22 07:00;62,45
2015-08-22 07:15;60,6
2015-08-22 07:30;61,65
2015-08-22 07:45;84,75
2015-08-22 08:00;86,7
2015-08-22 08:15;77
2015-08-22 08:30;76,95
2015-08-22 08:45;76,95
2015-08-22 09:00;74,55
2015-08-22 09:15;77,35
2015-08-22 09:30;76,1
2015-08-22 09:45;73,6
2015-08-22 10:00;75
2015-08-22 10:15;76,4
2015-08-22 10:30;73,8
2015-08-22 10:45;73,9
2015-08-22 11:00;75,95
2015-08-22 11:15;75,75
2015-08-22 11:30;75,05
2015-08-22 11:45;75,95
2015-08-22 12:00;76,4
2015-08-22 12:15;76,2
2015-08-22 12:30;77,4
2015-08-22 12:45;76,2
2015-08-22 13:00;77,7
2015-08-22 13:15;77,85
2015-08-22 13:30;78,65
2015-08-22 13:45;76,9
2015-08-22 14:00;76,4
2015-08-22 14:15;78,35
2015-08-22 14:30;78,35
2015-08-22 14:45;77,7
2015-08-22 15:00;76,7
2015-08-22 15:15;77,4
2015-08-22 15:30;75,15
2015-08-22 15:45;74,6
2015-08-22 16:00;75,8
2015-08-22 16:15;76,25
2015-08-22 16:30;76,95
2015-08-22 16:45;75,9
2015-08-22 17:00;79,3
2015-08-22 17:15;80,25
2015-08-22 17:30;79,65
2015-08-22 17:45;82,35
2015-08-22 18:00;81,5
2015-08-22 18:15;77,2
2015-08-22 18:30;81,05
2015-08-22 18:45;74,2
2015-08-22 19:00;76,95
2015-08-22 19:15;80,9
2015-08-22 19:30;79,9
2015-08-22 19:45;77,3
2015-08-22 20:00;76,2
2015-08-22 20:15;74,8
2015-08-22 20:30;78,8
2015-08-22 20:45;72,8
2015-08-22 21:00;72,5
2015-08-22 21:15;78,45
2015-08-22 21:30;79,4
2015-08-22 21:45;71,6
2015-08-22 22:00;70,4
2015-08-22 22:15;71,05
2015-08-22 22:30;69,3
2015-08-22 22:45;67,3
2015-08-22 23:00;65,7
2015-08-22 23:15;70
2015-08-22 23:30;68,95
2015-08-22 23:45;72,75
2015-08-23 00:00;76,6
2015-08-23 00:15;66,2
2015-08-23 00:30;65,15
2015-08-23 00:45;64,85
2015-08-23 01:00;65
2015-08-23 01:15;63,3
2015-08-23 01:30;64,2
2015-08-23 01:45;65,6
2015-08-23 02:00;63,75
2015-08-23 02:15;63,95
2015-08-23 02:30;65,4
2015-08-23 02:45;65,65
2015-08-23 03:00;65,3
2015-08-23 03:15;65,55
2015-08-23 03:30;63,6
2015-08-23 03:45;65,15
2015-08-23 04:00;65,75
2015-08-23 04:15;64,4
2015-08-23 04:30;63,45
2015-08-23 04:45;64,75
2015-08-23 05:00;64,35
2015-08-23 05:15;65,05
2015-08-23 05:30;65,4
2015-08-23 05:45;61,4
2015-08-23 06:00;64
2015-08-23 06:15;63,65
2015-08-23 06:30;64,05
2015-08-23 06:45;63,3
2015-08-23 07:00;59,9
2015-08-23 07:15;61,6
2015-08-23 07:30;60,6
2015-08-23 07:45;60,3
2015-08-23 08:00;59,6
2015-08-23 08:15;62,05
2015-08-23 08:30;61,2
2015-08-23 08:45;62,1
2015-08-23 09:00;61,1
2015-08-23 09:15;63,95
2015-08-23 09:30;66
2015-08-23 09:45;66,55
2015-08-23 10:00;66,3
2015-08-23 10:15;68,3
2015-08-23 10:30;68,35
2015-08-23 10:45;69,45
2015-08-23 11:00;70,2
2015-08-23 11:15;71,05
2015-08-23 11:30;71
2015-08-23 11:45;70,65
2015-08-23 12:00;71,4
2015-08-23 12:15;74
2015-08-23 12:30;71,75
2015-08-23 12:45;73,75
2015-08-23 13:00;73,45
2015-08-23 13:15;74
2015-08-23 13:30;71,8
2015-08-23 13:45;71,45
2015-08-23 14:00;72,05
2015-08-23 14:15;70,45
2015-08-23 14:30;71,6
2015-08-23 14:45;72,4
2015-08-23 15:00;72,55
2015-08-23 15:15;72,6
2015-08-23 15:30;70,7
2015-08-23 15:45;68,85
2015-08-23 16:00;69,65
2015-08-23 16:15;71
2015-08-23 16:30;70,7
2015-08-23 16:45;71,6
2015-08-23 17:00;75,6
2015-08-23 17:15;75
2015-08-23 17:30;72,45
2015-08-23 17:45;76,95
2015-08-23 18:00;75,2
2015-08-23 18:15;72,3
2015-08-23 18:30;74,6
2015-08-23 18:45;69,95
2015-08-23 19:00;68,7
2015-08-23 19:15;73,95
2015-08-23 19:30;70,5
2015-08-23 19:45;68,6
2015-08-23 20:00;66,85
2015-08-23 20:15;66,1
2015-08-23 20:30;70,45
2015-08-23 20:45;72,4
2015-08-23 21:00;70,6
2015-08-23 21:15;71,1
2015-08-23 21:30;67,7
2015-08-23 21:45;68,9
2015-08-23 22:00;69,25
2015-08-23 22:15;67,75
2015-08-23 22:30;68,6
2015-08-23 22:45;66,4
2015-08-23 23:00;68,7
2015-08-23 23:15;76,95
2015-08-23 23:30;77,25
2015-08-23 23:45;78,5

